Time,TemperatureF,DewpointF,PressureIn,WindDirection,WindDirectionDegrees,WindSpeedMPH,WindSpeedGustMPH,Humidity,HourlyPrecipIn,Conditions,Clouds,dailyrainin,SoftwareType,DateUTC
2013-04-20 00:01:00,41.6,34.3,30.16,North,355,2.0,3.0,75,0.00,,,0.91,Wunderground v.1.13,2013-04-20 04:01:00,
2013-04-20 00:05:00,41.5,34.2,30.16,NNW,344,0.0,2.0,75,0.00,,,0.91,Wunderground v.1.13,2013-04-20 04:05:00,
2013-04-20 00:06:00,41.4,34.1,30.16,NNW,344,0.0,2.0,75,0.00,,,0.91,Wunderground v.1.13,2013-04-20 04:06:00,
2013-04-20 00:09:00,41.3,34.0,30.16,North,355,2.0,2.0,75,0.00,,,0.91,Wunderground v.1.13,2013-04-20 04:09:00,
2013-04-20 00:10:00,41.3,34.0,30.16,North,351,6.0,6.0,75,0.00,,,0.00,Wunderground v.1.13,2013-04-20 04:10:00,
2013-04-20 00:15:00,41.1,33.8,30.16,NNW,346,4.0,4.0,75,0.00,,,0.00,Wunderground v.1.13,2013-04-20 04:15:00,
2013-04-20 00:21:00,41.1,33.8,30.16,North,349,8.0,8.0,75,0.00,,,0.00,Wunderground v.1.13,2013-04-20 04:21:00,
2013-04-20 00:26:00,41.0,33.7,30.16,North,5,0.0,6.0,75,0.00,,,0.00,Wunderground v.1.13,2013-04-20 04:26:00,
2013-04-20 00:31:00,40.9,33.2,30.16,North,355,5.0,5.0,74,0.00,,,0.00,Wunderground v.1.13,2013-04-20 04:31:00,
2013-04-20 00:37:00,40.8,33.2,30.16,NNE,15,6.0,6.0,74,0.00,,,0.00,Wunderground v.1.13,2013-04-20 04:37:00,
2013-04-20 00:42:00,40.7,33.1,30.16,NNW,348,4.0,4.0,74,0.00,,,0.00,Wunderground v.1.13,2013-04-20 04:42:00,
2013-04-20 00:47:00,40.6,33.0,30.16,North,355,0.0,4.0,74,0.00,,,0.00,Wunderground v.1.13,2013-04-20 04:47:00,
2013-04-20 00:52:00,40.6,32.6,30.17,NNW,344,1.0,5.0,73,0.00,,,0.00,Wunderground v.1.13,2013-04-20 04:52:00,
2013-04-20 00:58:00,40.5,33.2,30.17,North,360,2.0,3.0,75,0.00,,,0.00,Wunderground v.1.13,2013-04-20 04:58:00,
2013-04-20 01:03:00,40.4,33.1,30.17,North,351,0.0,2.0,75,0.00,,,0.00,Wunderground v.1.13,2013-04-20 05:03:00,
2013-04-20 01:08:00,40.2,32.9,30.18,North,355,1.0,1.0,75,0.00,,,0.00,Wunderground v.1.13,2013-04-20 05:08:00,
2013-04-20 01:13:00,40.0,33.0,30.18,NNW,334,2.0,3.0,76,0.00,,,0.00,Wunderground v.1.13,2013-04-20 05:13:00,
2013-04-20 01:18:00,39.9,32.9,30.18,NNW,333,3.0,3.0,76,0.00,,,0.00,Wunderground v.1.13,2013-04-20 05:18:00,
2013-04-20 01:24:00,39.9,32.9,30.18,North,355,1.0,4.0,76,0.00,,,0.00,Wunderground v.1.13,2013-04-20 05:24:00,
2013-04-20 01:29:00,39.7,33.4,30.18,North,355,3.0,3.0,78,0.00,,,0.00,Wunderground v.1.13,2013-04-20 05:29:00,
2013-04-20 01:35:00,39.5,32.9,30.18,NNW,346,0.0,2.0,77,0.00,,,0.00,Wunderground v.1.13,2013-04-20 05:35:00,
2013-04-20 01:41:00,39.4,33.1,30.19,NNW,348,0.0,3.0,78,0.00,,,0.00,Wunderground v.1.13,2013-04-20 05:41:00,
2013-04-20 01:47:00,39.3,33.0,30.19,North,10,3.0,7.0,78,0.00,,,0.00,Wunderground v.1.13,2013-04-20 05:47:00,
2013-04-20 01:52:00,39.2,33.2,30.19,North,355,2.0,3.0,79,0.00,,,0.00,Wunderground v.1.13,2013-04-20 05:52:00,
2013-04-20 01:57:00,39.1,33.1,30.19,North,5,4.0,4.0,79,0.00,,,0.00,Wunderground v.1.13,2013-04-20 05:57:00,
2013-04-20 02:02:00,39.0,33.0,30.19,North,355,0.0,5.0,79,0.00,,,0.00,Wunderground v.1.13,2013-04-20 06:02:00,
2013-04-20 02:07:00,38.9,32.9,30.19,NNW,339,0.0,6.0,79,0.00,,,0.00,Wunderground v.1.13,2013-04-20 06:07:00,
2013-04-20 02:12:00,38.8,32.8,30.19,North,355,4.0,8.0,79,0.00,,,0.00,Wunderground v.1.13,2013-04-20 06:12:00,
2013-04-20 02:17:00,38.6,33.0,30.19,North,349,4.0,6.0,80,0.00,,,0.00,Wunderground v.1.13,2013-04-20 06:17:00,
2013-04-20 02:22:00,38.6,33.0,30.19,NNW,333,0.0,4.0,80,0.00,,,0.00,Wunderground v.1.13,2013-04-20 06:22:00,
2013-04-20 02:27:00,38.5,32.9,30.20,North,360,3.0,4.0,80,0.00,,,0.00,Wunderground v.1.13,2013-04-20 06:27:00,
2013-04-20 02:32:00,38.5,32.9,30.19,NW,321,0.0,5.0,80,0.00,,,0.00,Wunderground v.1.13,2013-04-20 06:32:00,
2013-04-20 02:37:00,38.4,32.8,30.19,North,5,0.0,8.0,80,0.00,,,0.00,Wunderground v.1.13,2013-04-20 06:37:00,
2013-04-20 02:42:00,38.4,33.1,30.20,North,355,0.0,4.0,81,0.00,,,0.00,Wunderground v.1.13,2013-04-20 06:42:00,
2013-04-20 02:47:00,38.2,32.9,30.19,NW,321,1.0,7.0,81,0.00,,,0.00,Wunderground v.1.13,2013-04-20 06:47:00,
2013-04-20 02:52:00,38.2,32.9,30.20,WNW,296,2.0,4.0,81,0.00,,,0.00,Wunderground v.1.13,2013-04-20 06:52:00,
2013-04-20 02:57:00,38.0,33.0,30.20,NNW,327,1.0,4.0,82,0.00,,,0.00,Wunderground v.1.13,2013-04-20 06:57:00,
2013-04-20 03:02:00,38.0,33.0,30.19,North,355,1.0,6.0,82,0.00,,,0.00,Wunderground v.1.13,2013-04-20 07:02:00,
2013-04-20 03:07:00,37.9,32.9,30.19,NW,325,0.0,5.0,82,0.00,,,0.00,Wunderground v.1.13,2013-04-20 07:07:00,
2013-04-20 03:12:00,37.8,32.8,30.19,North,9,1.0,4.0,82,0.00,,,0.00,Wunderground v.1.13,2013-04-20 07:12:00,
2013-04-20 03:17:00,37.8,32.8,30.20,NNW,347,3.0,7.0,82,0.00,,,0.00,Wunderground v.1.13,2013-04-20 07:17:00,
2013-04-20 03:22:00,37.8,32.8,30.20,North,360,0.0,3.0,82,0.00,,,0.00,Wunderground v.1.13,2013-04-20 07:22:00,
2013-04-20 03:27:00,37.7,32.7,30.20,NNW,342,0.0,4.0,82,0.00,,,0.00,Wunderground v.1.13,2013-04-20 07:27:00,
2013-04-20 03:32:00,37.6,32.6,30.20,NNW,346,0.0,4.0,82,0.00,,,0.00,Wunderground v.1.13,2013-04-20 07:32:00,
2013-04-20 03:37:00,37.5,32.2,30.20,NW,325,0.0,3.0,81,0.00,,,0.00,Wunderground v.1.13,2013-04-20 07:37:00,
2013-04-20 03:42:00,37.6,31.7,30.20,North,360,7.0,7.0,79,0.00,,,0.00,Wunderground v.1.13,2013-04-20 07:42:00,
2013-04-20 03:47:00,37.8,31.2,30.20,WNW,294,3.0,7.0,77,0.00,,,0.00,Wunderground v.1.13,2013-04-20 07:47:00,
2013-04-20 03:52:00,37.9,31.3,30.21,NNW,333,1.0,4.0,77,0.00,,,0.00,Wunderground v.1.13,2013-04-20 07:52:00,
2013-04-20 03:57:00,37.9,31.0,30.21,NNW,340,0.0,2.0,76,0.00,,,0.00,Wunderground v.1.13,2013-04-20 07:57:00,
2013-04-20 04:02:00,37.9,30.7,30.21,WNW,302,0.0,4.0,75,0.00,,,0.00,Wunderground v.1.13,2013-04-20 08:02:00,
2013-04-20 04:07:00,37.8,31.2,30.22,NNW,337,0.0,2.0,77,0.00,,,0.00,Wunderground v.1.13,2013-04-20 08:07:00,
2013-04-20 04:12:00,37.5,31.3,30.22,NNW,340,0.0,2.0,78,0.00,,,0.00,Wunderground v.1.13,2013-04-20 08:12:00,
2013-04-20 04:17:00,37.1,31.8,30.22,NNW,340,0.0,1.0,81,0.00,,,0.00,Wunderground v.1.13,2013-04-20 08:17:00,
2013-04-20 04:22:00,36.7,32.0,30.22,NNW,340,0.0,1.0,83,0.00,,,0.00,Wunderground v.1.13,2013-04-20 08:22:00,
2013-04-20 04:27:00,36.3,31.9,30.23,NNW,340,0.0,1.0,84,0.00,,,0.00,Wunderground v.1.13,2013-04-20 08:27:00,
2013-04-20 04:32:00,36.0,31.6,30.22,NNW,340,0.0,1.0,84,0.00,,,0.00,Wunderground v.1.13,2013-04-20 08:32:00,
2013-04-20 04:37:00,35.8,31.7,30.23,NNW,340,0.0,0.0,85,0.00,,,0.00,Wunderground v.1.13,2013-04-20 08:37:00,
2013-04-20 04:42:00,35.6,31.8,30.23,NNW,340,0.0,0.0,86,0.00,,,0.00,Wunderground v.1.13,2013-04-20 08:42:00,
2013-04-20 04:47:00,35.4,31.9,30.23,NNW,342,0.0,3.0,87,0.00,,,0.00,Wunderground v.1.13,2013-04-20 08:47:00,
2013-04-20 04:52:00,35.3,31.8,30.23,NNW,339,0.0,1.0,87,0.00,,,0.00,Wunderground v.1.13,2013-04-20 08:52:00,
2013-04-20 04:57:00,35.1,31.6,30.23,NNW,339,0.0,1.0,87,0.00,,,0.00,Wunderground v.1.13,2013-04-20 08:57:00,
2013-04-20 05:02:00,35.0,31.8,30.23,NNW,339,0.0,1.0,88,0.00,,,0.00,Wunderground v.1.13,2013-04-20 09:02:00,
2013-04-20 05:07:00,34.8,31.6,30.23,NNW,339,0.0,0.0,88,0.00,,,0.00,Wunderground v.1.13,2013-04-20 09:07:00,
2013-04-20 05:12:00,34.7,31.5,30.23,NNW,339,1.0,1.0,88,0.00,,,0.00,Wunderground v.1.13,2013-04-20 09:12:00,
2013-04-20 05:17:00,34.7,31.5,30.24,WNW,290,0.0,2.0,88,0.00,,,0.00,Wunderground v.1.13,2013-04-20 09:17:00,
2013-04-20 05:22:00,34.6,31.4,30.24,NW,311,0.0,1.0,88,0.00,,,0.00,Wunderground v.1.13,2013-04-20 09:22:00,
2013-04-20 05:27:00,34.5,31.3,30.24,NW,311,0.0,1.0,88,0.00,,,0.00,Wunderground v.1.13,2013-04-20 09:27:00,
2013-04-20 05:33:00,34.4,31.2,30.24,NW,311,0.0,1.0,88,0.00,,,0.00,Wunderground v.1.13,2013-04-20 09:33:00,
2013-04-20 05:38:00,34.3,31.1,30.25,NW,311,0.0,1.0,88,0.00,,,0.00,Wunderground v.1.13,2013-04-20 09:38:00,
2013-04-20 05:43:00,34.2,31.0,30.25,NNW,331,2.0,2.0,88,0.00,,,0.00,Wunderground v.1.13,2013-04-20 09:43:00,
2013-04-20 05:48:00,34.1,30.9,30.24,NNW,331,0.0,1.0,88,0.00,,,0.00,Wunderground v.1.13,2013-04-20 09:48:00,
2013-04-20 05:53:00,34.0,31.1,30.25,NNW,331,0.0,1.0,89,0.00,,,0.00,Wunderground v.1.13,2013-04-20 09:53:00,
2013-04-20 05:58:00,33.9,31.0,30.25,NNW,331,0.0,0.0,89,0.00,,,0.00,Wunderground v.1.13,2013-04-20 09:58:00,
2013-04-20 06:03:00,33.8,30.9,30.25,NNW,331,0.0,0.0,89,0.00,,,0.00,Wunderground v.1.13,2013-04-20 10:03:00,
2013-04-20 06:08:00,33.6,30.7,30.25,NNW,331,0.0,0.0,89,0.00,,,0.00,Wunderground v.1.13,2013-04-20 10:08:00,
2013-04-20 06:13:00,33.6,30.7,30.25,NNW,331,0.0,0.0,89,0.00,,,0.00,Wunderground v.1.13,2013-04-20 10:13:00,
2013-04-20 06:18:00,33.5,30.6,30.25,NNW,331,0.0,1.0,89,0.00,,,0.00,Wunderground v.1.13,2013-04-20 10:18:00,
2013-04-20 06:23:00,33.5,30.6,30.25,NNW,331,0.0,1.0,89,0.00,,,0.00,Wunderground v.1.13,2013-04-20 10:23:00,
2013-04-20 06:28:00,33.5,30.6,30.26,NNW,331,0.0,0.0,89,0.00,,,0.00,Wunderground v.1.13,2013-04-20 10:28:00,
2013-04-20 06:33:00,33.4,30.5,30.26,NNW,331,0.0,0.0,89,0.00,,,0.00,Wunderground v.1.13,2013-04-20 10:33:00,
2013-04-20 06:38:00,33.3,30.4,30.26,NNW,331,0.0,1.0,89,0.00,,,0.00,Wunderground v.1.13,2013-04-20 10:38:00,
2013-04-20 06:43:00,33.4,30.5,30.27,NNW,332,0.0,1.0,89,0.00,,,0.00,Wunderground v.1.13,2013-04-20 10:43:00,
2013-04-20 06:48:00,33.3,30.4,30.27,NNW,331,0.0,1.0,89,0.00,,,0.00,Wunderground v.1.13,2013-04-20 10:48:00,
2013-04-20 06:53:00,33.3,30.4,30.27,NNW,331,0.0,2.0,89,0.00,,,0.00,Wunderground v.1.13,2013-04-20 10:53:00,
2013-04-20 06:58:00,33.3,30.4,30.27,NNW,329,0.0,2.0,89,0.00,,,0.00,Wunderground v.1.13,2013-04-20 10:58:00,
2013-04-20 07:03:00,33.2,30.3,30.28,NNW,329,0.0,1.0,89,0.00,,,0.00,Wunderground v.1.13,2013-04-20 11:03:00,
2013-04-20 07:08:00,33.1,30.2,30.28,NNW,329,0.0,1.0,89,0.00,,,0.00,Wunderground v.1.13,2013-04-20 11:08:00,
2013-04-20 07:13:00,33.0,30.1,30.28,NNW,329,0.0,0.0,89,0.00,,,0.00,Wunderground v.1.13,2013-04-20 11:13:00,
2013-04-20 07:18:00,33.0,30.4,30.29,NNW,329,0.0,1.0,90,0.00,,,0.00,Wunderground v.1.13,2013-04-20 11:18:00,
2013-04-20 07:23:00,33.0,30.4,30.29,NNW,329,0.0,0.0,90,0.00,,,0.00,Wunderground v.1.13,2013-04-20 11:23:00,
2013-04-20 07:28:00,32.9,30.3,30.29,NNW,329,1.0,1.0,90,0.00,,,0.00,Wunderground v.1.13,2013-04-20 11:28:00,
2013-04-20 07:33:00,33.0,30.4,30.30,NNW,329,0.0,0.0,90,0.00,,,0.00,Wunderground v.1.13,2013-04-20 11:33:00,
2013-04-20 07:38:00,33.0,30.4,30.30,NNW,329,0.0,0.0,90,0.00,,,0.00,Wunderground v.1.13,2013-04-20 11:38:00,
2013-04-20 07:43:00,33.0,30.4,30.30,NNW,329,0.0,0.0,90,0.00,,,0.00,Wunderground v.1.13,2013-04-20 11:43:00,
2013-04-20 07:48:00,33.1,30.5,30.30,NNW,329,0.0,0.0,90,0.00,,,0.00,Wunderground v.1.13,2013-04-20 11:48:00,
2013-04-20 07:53:00,33.2,30.6,30.31,NNW,329,0.0,0.0,90,0.00,,,0.00,Wunderground v.1.13,2013-04-20 11:53:00,
2013-04-20 07:58:00,33.3,30.7,30.31,NNW,329,0.0,0.0,90,0.00,,,0.00,Wunderground v.1.13,2013-04-20 11:58:00,
2013-04-20 08:03:00,33.4,30.8,30.31,NNW,329,0.0,0.0,90,0.00,,,0.00,Wunderground v.1.13,2013-04-20 12:03:00,
2013-04-20 08:08:00,33.5,30.9,30.32,NNW,329,0.0,1.0,90,0.00,,,0.00,Wunderground v.1.13,2013-04-20 12:08:00,
2013-04-20 08:13:00,34.1,30.6,30.32,NNW,329,0.0,3.0,87,0.00,,,0.00,Wunderground v.1.13,2013-04-20 12:13:00,
2013-04-20 08:18:00,34.7,31.2,30.32,NNW,329,0.0,1.0,87,0.00,,,0.00,Wunderground v.1.13,2013-04-20 12:18:00,
2013-04-20 08:23:00,35.2,31.4,30.32,WNW,292,0.0,1.0,86,0.00,,,0.00,Wunderground v.1.13,2013-04-20 12:23:00,
2013-04-20 08:28:00,35.9,31.5,30.32,North,5,3.0,3.0,84,0.00,,,0.00,Wunderground v.1.13,2013-04-20 12:28:00,
2013-04-20 08:33:00,36.8,30.6,30.33,North,355,4.0,4.0,78,0.00,,,0.00,Wunderground v.1.13,2013-04-20 12:33:00,
2013-04-20 08:38:00,37.6,29.4,30.32,North,360,2.0,5.0,72,0.00,,,0.00,Wunderground v.1.13,2013-04-20 12:38:00,
2013-04-20 08:43:00,38.4,29.1,30.33,NNW,342,1.0,4.0,69,0.00,,,0.00,Wunderground v.1.13,2013-04-20 12:43:00,
2013-04-20 08:48:00,39.2,29.9,30.33,NNE,13,4.0,4.0,69,0.00,,,0.00,Wunderground v.1.13,2013-04-20 12:48:00,
2013-04-20 08:53:00,39.7,28.5,30.33,North,350,5.0,5.0,64,0.00,,,0.00,Wunderground v.1.13,2013-04-20 12:53:00,
2013-04-20 08:58:00,40.0,28.4,30.33,NNE,13,3.0,7.0,63,0.00,,,0.00,Wunderground v.1.13,2013-04-20 12:58:00,
2013-04-20 09:03:00,40.3,27.9,30.34,North,360,4.0,7.0,61,0.00,,,0.00,Wunderground v.1.13,2013-04-20 13:03:00,
2013-04-20 09:08:00,40.5,27.7,30.34,North,350,1.0,5.0,60,0.00,,,0.00,Wunderground v.1.13,2013-04-20 13:08:00,
2013-04-20 09:13:00,40.7,27.9,30.34,North,9,4.0,7.0,60,0.00,,,0.00,Wunderground v.1.13,2013-04-20 13:13:00,
2013-04-20 09:19:00,41.0,27.3,30.34,NNE,18,2.0,7.0,58,0.00,,,0.00,Wunderground v.1.13,2013-04-20 13:19:00,
2013-04-20 09:23:00,41.2,27.5,30.34,North,355,4.0,6.0,58,0.00,,,0.00,Wunderground v.1.13,2013-04-20 13:23:00,
2013-04-20 09:29:00,41.5,27.4,30.34,NNW,344,1.0,7.0,57,0.00,,,0.00,Wunderground v.1.13,2013-04-20 13:29:00,
2013-04-20 09:34:00,41.7,28.0,30.34,North,9,1.0,6.0,58,0.00,,,0.00,Wunderground v.1.13,2013-04-20 13:34:00,
2013-04-20 09:39:00,42.0,28.3,30.35,North,355,2.0,5.0,58,0.00,,,0.00,Wunderground v.1.13,2013-04-20 13:39:00,
2013-04-20 09:44:00,42.5,29.6,30.36,NNW,340,0.0,3.0,60,0.00,,,0.00,Wunderground v.1.13,2013-04-20 13:44:00,
2013-04-20 09:49:00,42.7,28.5,30.36,North,360,0.0,3.0,57,0.00,,,0.00,Wunderground v.1.13,2013-04-20 13:49:00,
2013-04-20 09:54:00,43.1,28.9,30.36,North,10,2.0,6.0,57,0.00,,,0.00,Wunderground v.1.13,2013-04-20 13:54:00,
2013-04-20 09:59:00,43.4,28.3,30.36,North,360,2.0,5.0,55,0.00,,,0.00,Wunderground v.1.13,2013-04-20 13:59:00,
2013-04-20 10:04:00,43.5,28.4,30.36,North,350,2.0,6.0,55,0.00,,,0.00,Wunderground v.1.13,2013-04-20 14:04:00,
2013-04-20 10:09:00,43.5,28.4,30.36,North,355,4.0,5.0,55,0.00,,,0.00,Wunderground v.1.13,2013-04-20 14:09:00,
2013-04-20 10:14:00,43.7,28.6,30.36,North,355,4.0,8.0,55,0.00,,,0.00,Wunderground v.1.13,2013-04-20 14:14:00,
2013-04-20 10:19:00,43.8,29.1,30.37,NW,308,3.0,8.0,56,0.00,,,0.00,Wunderground v.1.13,2013-04-20 14:19:00,
2013-04-20 10:24:00,44.2,28.6,30.36,North,9,3.0,6.0,54,0.00,,,0.00,Wunderground v.1.13,2013-04-20 14:24:00,
2013-04-20 10:29:00,44.7,29.5,30.37,North,355,4.0,7.0,55,0.00,,,0.00,Wunderground v.1.13,2013-04-20 14:29:00,
2013-04-20 10:34:00,44.8,28.7,30.37,North,5,5.0,8.0,53,0.00,,,0.00,Wunderground v.1.13,2013-04-20 14:34:00,
2013-04-20 10:39:00,45.0,29.3,30.37,North,360,8.0,8.0,54,0.00,,,0.00,Wunderground v.1.13,2013-04-20 14:39:00,
2013-04-20 10:44:00,45.2,30.4,30.37,NNE,22,7.0,7.0,56,0.00,,,0.00,Wunderground v.1.13,2013-04-20 14:44:00,
2013-04-20 10:49:00,45.7,29.5,30.37,North,360,2.0,7.0,53,0.00,,,0.00,Wunderground v.1.13,2013-04-20 14:49:00,
2013-04-20 10:54:00,45.9,29.2,30.38,North,355,3.0,6.0,52,0.00,,,0.00,Wunderground v.1.13,2013-04-20 14:54:00,
2013-04-20 10:59:00,45.9,28.8,30.37,North,5,4.0,8.0,51,0.00,,,0.00,Wunderground v.1.13,2013-04-20 14:59:00,
2013-04-20 11:04:00,46.4,29.7,30.37,North,355,5.0,6.0,52,0.00,,,0.00,Wunderground v.1.13,2013-04-20 15:04:00,
2013-04-20 11:09:00,47.0,30.3,30.38,NNE,15,4.0,5.0,52,0.00,,,0.00,Wunderground v.1.13,2013-04-20 15:09:00,
2013-04-20 11:14:00,47.5,30.3,30.38,North,5,3.0,7.0,51,0.00,,,0.00,Wunderground v.1.13,2013-04-20 15:14:00,
2013-04-20 11:19:00,47.7,30.4,30.38,North,5,5.0,5.0,51,0.00,,,0.00,Wunderground v.1.13,2013-04-20 15:19:00,
2013-04-20 11:24:00,47.8,31.0,30.38,North,355,0.0,4.0,52,0.00,,,0.00,Wunderground v.1.13,2013-04-20 15:24:00,
2013-04-20 11:29:00,48.2,29.9,30.38,North,355,0.0,4.0,49,0.00,,,0.00,Wunderground v.1.13,2013-04-20 15:29:00,
2013-04-20 11:34:00,48.7,30.4,30.38,North,350,1.0,3.0,49,0.00,,,0.00,Wunderground v.1.13,2013-04-20 15:34:00,
2013-04-20 11:39:00,49.0,30.7,30.39,West,279,4.0,7.0,49,0.00,,,0.00,Wunderground v.1.13,2013-04-20 15:39:00,
2013-04-20 11:44:00,49.4,31.5,30.39,NW,304,0.0,5.0,50,0.00,,,0.00,Wunderground v.1.13,2013-04-20 15:44:00,
2013-04-20 11:49:00,49.9,31.0,30.38,NW,307,0.0,5.0,48,0.00,,,0.00,Wunderground v.1.13,2013-04-20 15:49:00,
2013-04-20 11:54:00,50.4,30.4,30.38,NW,321,1.0,5.0,46,0.00,,,0.00,Wunderground v.1.13,2013-04-20 15:54:00,
2013-04-20 12:00:00,50.4,29.3,30.38,WNW,301,0.0,6.0,44,0.00,,,0.00,Wunderground v.1.13,2013-04-20 16:00:00,
2013-04-20 12:05:00,51.0,30.4,30.38,North,360,3.0,5.0,45,0.00,,,0.00,Wunderground v.1.13,2013-04-20 16:05:00,
2013-04-20 12:10:00,50.7,29.6,30.38,North,355,3.0,7.0,44,0.00,,,0.00,Wunderground v.1.13,2013-04-20 16:10:00,
2013-04-20 12:15:00,50.8,30.7,30.38,North,349,0.0,4.0,46,0.00,,,0.00,Wunderground v.1.13,2013-04-20 16:15:00,
2013-04-20 12:20:00,51.5,31.4,30.38,NNW,348,1.0,1.0,46,0.00,,,0.00,Wunderground v.1.13,2013-04-20 16:20:00,
2013-04-20 12:25:00,51.8,30.6,30.38,WNW,297,2.0,2.0,44,0.00,,,0.00,Wunderground v.1.13,2013-04-20 16:25:00,
2013-04-20 12:30:00,52.1,30.8,30.38,WNW,296,1.0,1.0,44,0.00,,,0.00,Wunderground v.1.13,2013-04-20 16:30:00,
2013-04-20 12:35:00,52.6,32.4,30.38,WNW,288,2.0,3.0,46,0.00,,,0.00,Wunderground v.1.13,2013-04-20 16:35:00,
2013-04-20 12:40:00,53.0,31.1,30.38,NW,326,0.0,1.0,43,0.00,,,0.00,Wunderground v.1.13,2013-04-20 16:40:00,
2013-04-20 12:45:00,52.5,29.5,30.38,WNW,292,0.0,1.0,41,0.00,,,0.00,Wunderground v.1.13,2013-04-20 16:45:00,
2013-04-20 12:50:00,52.4,31.1,30.38,NNW,328,1.0,2.0,44,0.00,,,0.00,Wunderground v.1.13,2013-04-20 16:50:00,
2013-04-20 12:55:00,52.3,30.4,30.38,North,360,0.0,2.0,43,0.00,,,0.00,Wunderground v.1.13,2013-04-20 16:55:00,
2013-04-20 13:00:00,52.8,30.9,30.38,NNW,345,0.0,1.0,43,0.00,,,0.00,Wunderground v.1.13,2013-04-20 17:00:00,
2013-04-20 13:05:00,52.8,31.5,30.38,North,5,1.0,1.0,44,0.00,,,0.00,Wunderground v.1.13,2013-04-20 17:05:00,
2013-04-20 13:10:00,52.8,30.3,30.38,North,355,1.0,7.0,42,0.00,,,0.00,Wunderground v.1.13,2013-04-20 17:10:00,
2013-04-20 13:15:00,53.3,31.9,30.38,NNW,348,4.0,8.0,44,0.00,,,0.00,Wunderground v.1.13,2013-04-20 17:15:00,
2013-04-20 13:20:00,53.8,31.8,30.38,WSW,240,3.0,4.0,43,0.00,,,0.00,Wunderground v.1.13,2013-04-20 17:20:00,
2013-04-20 13:25:00,53.8,30.6,30.38,SW,226,0.0,2.0,41,0.00,,,0.00,Wunderground v.1.13,2013-04-20 17:25:00,
2013-04-20 13:30:00,54.0,32.0,30.37,NW,309,1.0,4.0,43,0.00,,,0.00,Wunderground v.1.13,2013-04-20 17:30:00,
2013-04-20 13:35:00,53.7,29.3,30.37,North,10,0.0,2.0,39,0.00,,,0.00,Wunderground v.1.13,2013-04-20 17:35:00,
2013-04-20 13:40:00,54.0,32.0,30.37,WNW,283,0.0,2.0,43,0.00,,,0.00,Wunderground v.1.13,2013-04-20 17:40:00,
2013-04-20 13:45:00,54.8,31.5,30.37,West,279,1.0,3.0,41,0.00,,,0.00,Wunderground v.1.13,2013-04-20 17:45:00,
2013-04-20 13:50:00,54.8,30.9,30.37,SW,223,1.0,1.0,40,0.00,,,0.00,Wunderground v.1.13,2013-04-20 17:50:00,
2013-04-20 13:55:00,55.1,30.6,30.37,WNW,302,1.0,1.0,39,0.00,,,0.00,Wunderground v.1.13,2013-04-20 17:55:00,
2013-04-20 14:00:00,55.4,29.5,30.37,NW,306,1.0,2.0,37,0.00,,,0.00,Wunderground v.1.13,2013-04-20 18:00:00,
2013-04-20 14:05:00,55.3,30.7,30.36,WNW,296,1.0,2.0,39,0.00,,,0.00,Wunderground v.1.13,2013-04-20 18:05:00,
2013-04-20 14:10:00,55.5,31.5,30.37,NNW,336,2.0,2.0,40,0.00,,,0.00,Wunderground v.1.13,2013-04-20 18:10:00,
2013-04-20 14:15:00,55.7,28.4,30.37,North,360,3.0,5.0,35,0.00,,,0.00,Wunderground v.1.13,2013-04-20 18:15:00,
2013-04-20 14:20:00,55.5,29.6,30.36,WNW,297,0.0,3.0,37,0.00,,,0.00,Wunderground v.1.13,2013-04-20 18:20:00,
2013-04-20 14:25:00,56.2,30.9,30.36,NW,325,2.0,2.0,38,0.00,,,0.00,Wunderground v.1.13,2013-04-20 18:25:00,
2013-04-20 14:30:00,56.7,30.7,30.36,NNW,342,1.0,3.0,37,0.00,,,0.00,Wunderground v.1.13,2013-04-20 18:30:00,
2013-04-20 14:35:00,56.8,30.1,30.36,WNW,303,4.0,4.0,36,0.00,,,0.00,Wunderground v.1.13,2013-04-20 18:35:00,
2013-04-20 14:40:00,56.2,28.9,30.36,NNW,340,2.0,5.0,35,0.00,,,0.00,Wunderground v.1.13,2013-04-20 18:40:00,
2013-04-20 14:45:00,56.5,31.2,30.36,NNW,335,2.0,4.0,38,0.00,,,0.00,Wunderground v.1.13,2013-04-20 18:45:00,
2013-04-20 14:50:00,56.5,29.1,30.36,NNW,336,2.0,3.0,35,0.00,,,0.00,Wunderground v.1.13,2013-04-20 18:50:00,
2013-04-20 14:56:00,56.3,29.0,30.36,NNW,338,1.0,3.0,35,0.00,,,0.00,Wunderground v.1.13,2013-04-20 18:56:00,
2013-04-20 15:01:00,56.7,32.0,30.36,NW,321,1.0,3.0,39,0.00,,,0.00,Wunderground v.1.13,2013-04-20 19:01:00,
2013-04-20 15:06:00,57.2,30.5,30.36,NNW,339,2.0,7.0,36,0.00,,,0.00,Wunderground v.1.13,2013-04-20 19:06:00,
2013-04-20 15:11:00,56.8,30.1,30.36,SSW,213,1.0,2.0,36,0.00,,,0.00,Wunderground v.1.13,2013-04-20 19:11:00,
2013-04-20 15:16:00,57.3,32.5,30.36,West,267,2.0,3.0,39,0.00,,,0.00,Wunderground v.1.13,2013-04-20 19:16:00,
2013-04-20 15:21:00,58.2,32.0,30.36,West,275,3.0,3.0,37,0.00,,,0.00,Wunderground v.1.13,2013-04-20 19:21:00,
2013-04-20 15:26:00,58.1,33.2,30.36,West,260,3.0,3.0,39,0.00,,,0.00,Wunderground v.1.13,2013-04-20 19:26:00,
2013-04-20 15:31:00,58.0,31.2,30.36,WNW,296,2.0,5.0,36,0.00,,,0.00,Wunderground v.1.13,2013-04-20 19:31:00,
2013-04-20 15:36:00,57.7,31.6,30.36,North,360,3.0,8.0,37,0.00,,,0.00,Wunderground v.1.13,2013-04-20 19:36:00,
2013-04-20 15:42:00,57.7,32.9,30.36,West,275,2.0,6.0,39,0.00,,,0.00,Wunderground v.1.13,2013-04-20 19:42:00,
2013-04-20 15:47:00,57.7,30.9,30.36,West,271,1.0,4.0,36,0.00,,,0.00,Wunderground v.1.13,2013-04-20 19:47:00,
2013-04-20 15:52:00,58.1,30.6,30.36,SW,223,1.0,3.0,35,0.00,,,0.00,Wunderground v.1.13,2013-04-20 19:52:00,
2013-04-20 15:57:00,58.2,32.0,30.36,NNW,348,3.0,3.0,37,0.00,,,0.00,Wunderground v.1.13,2013-04-20 19:57:00,
2013-04-20 16:02:00,58.3,30.7,30.36,WNW,297,1.0,3.0,35,0.00,,,0.00,Wunderground v.1.13,2013-04-20 20:02:00,
2013-04-20 16:07:00,58.2,31.3,30.36,WNW,300,0.0,2.0,36,0.00,,,0.00,Wunderground v.1.13,2013-04-20 20:07:00,
2013-04-20 16:12:00,58.7,31.1,30.36,West,267,1.0,3.0,35,0.00,,,0.00,Wunderground v.1.13,2013-04-20 20:12:00,
2013-04-20 16:17:00,58.3,31.4,30.35,NW,319,4.0,6.0,36,0.00,,,0.00,Wunderground v.1.13,2013-04-20 20:17:00,
2013-04-20 16:22:00,58.0,33.2,30.35,North,360,5.0,5.0,39,0.00,,,0.00,Wunderground v.1.13,2013-04-20 20:22:00,
2013-04-20 16:27:00,58.2,32.7,30.35,NW,311,1.0,4.0,38,0.00,,,0.00,Wunderground v.1.13,2013-04-20 20:27:00,
2013-04-20 16:32:00,58.5,30.9,30.35,WSW,246,0.0,3.0,35,0.00,,,0.00,Wunderground v.1.13,2013-04-20 20:32:00,
2013-04-20 16:37:00,58.4,32.2,30.35,NNW,343,2.0,5.0,37,0.00,,,0.00,Wunderground v.1.13,2013-04-20 20:37:00,
2013-04-20 16:42:00,58.4,30.1,30.35,North,9,2.0,7.0,34,0.00,,,0.00,Wunderground v.1.13,2013-04-20 20:42:00,
2013-04-20 16:47:00,58.2,30.7,30.35,NW,325,3.0,7.0,35,0.00,,,0.00,Wunderground v.1.13,2013-04-20 20:47:00,
2013-04-20 16:52:00,58.0,31.2,30.35,WNW,300,2.0,4.0,36,0.00,,,0.00,Wunderground v.1.13,2013-04-20 20:52:00,
2013-04-20 16:57:00,58.0,30.5,30.35,NW,310,0.0,3.0,35,0.00,,,0.00,Wunderground v.1.13,2013-04-20 20:57:00,
2013-04-20 17:02:00,57.8,30.3,30.35,West,279,6.0,6.0,35,0.00,,,0.00,Wunderground v.1.13,2013-04-20 21:02:00,
2013-04-20 17:07:00,57.7,30.9,30.35,North,9,2.0,6.0,36,0.00,,,0.00,Wunderground v.1.13,2013-04-20 21:07:00,
2013-04-20 17:12:00,57.6,30.8,30.35,NW,325,4.0,11.0,36,0.00,,,0.00,Wunderground v.1.13,2013-04-20 21:12:00,
2013-04-20 17:17:00,57.3,31.2,30.35,NNW,338,3.0,10.0,37,0.00,,,0.00,Wunderground v.1.13,2013-04-20 21:17:00,
2013-04-20 17:22:00,57.7,32.9,30.35,WNW,289,1.0,4.0,39,0.00,,,0.00,Wunderground v.1.13,2013-04-20 21:22:00,
2013-04-20 17:27:00,57.8,31.7,30.36,NNW,331,2.0,4.0,37,0.00,,,0.00,Wunderground v.1.13,2013-04-20 21:27:00,
2013-04-20 17:32:00,58.0,31.2,30.36,WNW,302,1.0,4.0,36,0.00,,,0.00,Wunderground v.1.13,2013-04-20 21:32:00,
2013-04-20 17:37:00,58.0,31.8,30.36,West,273,2.0,6.0,37,0.00,,,0.00,Wunderground v.1.13,2013-04-20 21:37:00,
2013-04-20 17:42:00,58.1,30.6,30.36,West,277,3.0,8.0,35,0.00,,,0.00,Wunderground v.1.13,2013-04-20 21:42:00,
2013-04-20 17:47:00,57.6,30.1,30.36,NNW,347,2.0,9.0,35,0.00,,,0.00,Wunderground v.1.13,2013-04-20 21:47:00,
2013-04-20 17:52:00,57.2,31.1,30.36,NW,305,3.0,4.0,37,0.00,,,0.00,Wunderground v.1.13,2013-04-20 21:52:00,
2013-04-20 17:57:00,57.3,30.5,30.36,WSW,242,5.0,5.0,36,0.00,,,0.00,Wunderground v.1.13,2013-04-20 21:57:00,
2013-04-20 18:02:00,57.0,31.0,30.36,NW,311,2.0,5.0,37,0.00,,,0.00,Wunderground v.1.13,2013-04-20 22:02:00,
2013-04-20 18:07:00,57.2,31.1,30.36,NW,325,2.0,3.0,37,0.00,,,0.00,Wunderground v.1.13,2013-04-20 22:07:00,
2013-04-20 18:12:00,56.8,32.1,30.37,North,9,1.0,7.0,39,0.00,,,0.00,Wunderground v.1.13,2013-04-20 22:12:00,
2013-04-20 18:17:00,57.0,32.3,30.37,North,355,1.0,5.0,39,0.00,,,0.00,Wunderground v.1.13,2013-04-20 22:17:00,
2013-04-20 18:22:00,57.0,31.0,30.36,NNE,12,4.0,7.0,37,0.00,,,0.00,Wunderground v.1.13,2013-04-20 22:22:00,
2013-04-20 18:27:00,56.9,31.5,30.36,NNW,338,3.0,4.0,38,0.00,,,0.00,Wunderground v.1.13,2013-04-20 22:27:00,
2013-04-20 18:33:00,56.8,31.4,30.36,North,9,4.0,6.0,38,0.00,,,0.00,Wunderground v.1.13,2013-04-20 22:33:00,
2013-04-20 18:38:00,56.4,30.4,30.36,NW,326,2.0,7.0,37,0.00,,,0.00,Wunderground v.1.13,2013-04-20 22:38:00,
2013-04-20 18:43:00,56.2,30.9,30.36,NNW,341,1.0,8.0,38,0.00,,,0.00,Wunderground v.1.13,2013-04-20 22:43:00,
2013-04-20 18:48:00,56.0,29.4,30.36,North,5,1.0,6.0,36,0.00,,,0.00,Wunderground v.1.13,2013-04-20 22:48:00,
2013-04-20 18:53:00,55.8,30.5,30.36,West,277,0.0,5.0,38,0.00,,,0.00,Wunderground v.1.13,2013-04-20 22:53:00,
2013-04-20 18:58:00,55.7,30.5,30.36,WNW,294,1.0,7.0,38,0.00,,,0.00,Wunderground v.1.13,2013-04-20 22:58:00,
2013-04-20 19:03:00,55.5,30.3,30.36,West,265,0.0,8.0,38,0.00,,,0.00,Wunderground v.1.13,2013-04-20 23:03:00,
2013-04-20 19:08:00,55.4,31.5,30.36,NW,323,2.0,5.0,40,0.00,,,0.00,Wunderground v.1.13,2013-04-20 23:08:00,
2013-04-20 19:13:00,55.4,30.8,30.36,North,5,2.0,6.0,39,0.00,,,0.00,Wunderground v.1.13,2013-04-20 23:13:00,
2013-04-20 19:18:00,55.5,30.9,30.36,North,360,0.0,6.0,39,0.00,,,0.00,Wunderground v.1.13,2013-04-20 23:18:00,
2013-04-20 19:23:00,55.4,30.2,30.36,North,360,2.0,7.0,38,0.00,,,0.00,Wunderground v.1.13,2013-04-20 23:23:00,
2013-04-20 19:28:00,55.2,30.7,30.36,North,9,0.0,4.0,39,0.00,,,0.00,Wunderground v.1.13,2013-04-20 23:28:00,
2013-04-20 19:33:00,54.9,30.4,30.36,NW,304,2.0,4.0,39,0.00,,,0.00,Wunderground v.1.13,2013-04-20 23:33:00,
2013-04-20 19:38:00,54.5,30.0,30.37,North,351,1.0,3.0,39,0.00,,,0.00,Wunderground v.1.13,2013-04-20 23:38:00,
2013-04-20 19:43:00,54.2,29.8,30.37,North,11,1.0,6.0,39,0.00,,,0.00,Wunderground v.1.13,2013-04-20 23:43:00,
2013-04-20 19:48:00,53.8,30.0,30.37,North,5,1.0,3.0,40,0.00,,,0.00,Wunderground v.1.13,2013-04-20 23:48:00,
2013-04-20 19:53:00,53.5,29.7,30.37,North,5,0.0,2.0,40,0.00,,,0.00,Wunderground v.1.13,2013-04-20 23:53:00,
2013-04-20 19:58:00,53.3,29.6,30.37,North,5,1.0,2.0,40,0.00,,,0.00,Wunderground v.1.13,2013-04-20 23:58:00,
2013-04-20 20:03:00,53.1,30.6,30.37,North,5,0.0,2.0,42,0.00,,,0.00,Wunderground v.1.13,2013-04-21 00:03:00,
2013-04-20 20:08:00,52.8,29.7,30.38,North,5,0.0,2.0,41,0.00,,,0.00,Wunderground v.1.13,2013-04-21 00:08:00,
2013-04-20 20:13:00,52.5,30.6,30.38,NW,318,0.0,3.0,43,0.00,,,0.00,Wunderground v.1.13,2013-04-21 00:13:00,
2013-04-20 20:19:00,52.2,30.4,30.38,NW,318,1.0,1.0,43,0.00,,,0.00,Wunderground v.1.13,2013-04-21 00:19:00,
2013-04-20 20:24:00,51.8,30.6,30.39,NW,318,0.0,1.0,44,0.00,,,0.00,Wunderground v.1.13,2013-04-21 00:24:00,
2013-04-20 20:29:00,51.4,30.7,30.39,NW,318,0.0,0.0,45,0.00,,,0.00,Wunderground v.1.13,2013-04-21 00:29:00,
2013-04-20 20:34:00,51.0,30.9,30.39,NW,318,0.0,1.0,46,0.00,,,0.00,Wunderground v.1.13,2013-04-21 00:34:00,
2013-04-20 20:39:00,50.5,30.5,30.39,NW,318,0.0,1.0,46,0.00,,,0.00,Wunderground v.1.13,2013-04-21 00:39:00,
2013-04-20 20:44:00,50.3,31.3,30.40,NW,321,0.0,0.0,48,0.00,,,0.00,Wunderground v.1.13,2013-04-21 00:44:00,
2013-04-20 20:49:00,50.0,30.5,30.40,NW,321,0.0,0.0,47,0.00,,,0.00,Wunderground v.1.13,2013-04-21 00:49:00,
2013-04-20 20:54:00,49.7,30.8,30.40,NW,321,0.0,0.0,48,0.00,,,0.00,Wunderground v.1.13,2013-04-21 00:54:00,
2013-04-20 20:59:00,49.4,31.5,30.40,NW,321,0.0,1.0,50,0.00,,,0.00,Wunderground v.1.13,2013-04-21 00:59:00,
2013-04-20 21:04:00,49.1,31.2,30.40,NW,321,0.0,1.0,50,0.00,,,0.00,Wunderground v.1.13,2013-04-21 01:04:00,
2013-04-20 21:09:00,49.2,29.3,30.41,NW,326,0.0,3.0,46,0.00,,,0.00,Wunderground v.1.13,2013-04-21 01:09:00,
2013-04-20 21:14:00,49.3,30.4,30.41,NW,326,0.0,0.0,48,0.00,,,0.00,Wunderground v.1.13,2013-04-21 01:14:00,
2013-04-20 21:19:00,49.0,30.1,30.41,NW,326,0.0,0.0,48,0.00,,,0.00,Wunderground v.1.13,2013-04-21 01:19:00,
2013-04-20 21:24:00,48.7,30.4,30.41,NW,326,0.0,0.0,49,0.00,,,0.00,Wunderground v.1.13,2013-04-21 01:24:00,
2013-04-20 21:29:00,48.4,30.1,30.41,NW,326,0.0,0.0,49,0.00,,,0.00,Wunderground v.1.13,2013-04-21 01:29:00,
2013-04-20 21:34:00,48.1,29.8,30.42,NW,326,0.0,0.0,49,0.00,,,0.00,Wunderground v.1.13,2013-04-21 01:34:00,
2013-04-20 21:39:00,47.9,29.6,30.42,NW,326,0.0,0.0,49,0.00,,,0.00,Wunderground v.1.13,2013-04-21 01:39:00,
2013-04-20 21:44:00,47.8,30.0,30.42,NW,326,0.0,1.0,50,0.00,,,0.00,Wunderground v.1.13,2013-04-21 01:44:00,
2013-04-20 21:49:00,48.3,30.5,30.43,NW,326,0.0,1.0,50,0.00,,,0.00,Wunderground v.1.13,2013-04-21 01:49:00,
2013-04-20 21:54:00,48.3,30.0,30.43,NW,326,0.0,0.0,49,0.00,,,0.00,Wunderground v.1.13,2013-04-21 01:54:00,
2013-04-20 21:59:00,48.4,30.1,30.43,NW,326,0.0,1.0,49,0.00,,,0.00,Wunderground v.1.13,2013-04-21 01:59:00,
2013-04-20 22:04:00,48.5,29.7,30.43,NW,326,0.0,1.0,48,0.00,,,0.00,Wunderground v.1.13,2013-04-21 02:04:00,
2013-04-20 22:09:00,48.6,30.3,30.42,NW,326,0.0,1.0,49,0.00,,,0.00,Wunderground v.1.13,2013-04-21 02:09:00,
2013-04-20 22:14:00,48.5,30.2,30.42,NW,326,0.0,1.0,49,0.00,,,0.00,Wunderground v.1.13,2013-04-21 02:14:00,
2013-04-20 22:19:00,48.2,29.4,30.43,NW,326,0.0,0.0,48,0.00,,,0.00,Wunderground v.1.13,2013-04-21 02:19:00,
2013-04-20 22:24:00,47.9,29.6,30.43,NW,326,0.0,0.0,49,0.00,,,0.00,Wunderground v.1.13,2013-04-21 02:24:00,
2013-04-20 22:29:00,47.8,30.0,30.43,NW,326,0.0,0.0,50,0.00,,,0.00,Wunderground v.1.13,2013-04-21 02:29:00,
2013-04-20 22:34:00,47.6,29.9,30.43,NW,326,0.0,0.0,50,0.00,,,0.00,Wunderground v.1.13,2013-04-21 02:34:00,
2013-04-20 22:39:00,47.4,30.2,30.44,NW,326,0.0,0.0,51,0.00,,,0.00,Wunderground v.1.13,2013-04-21 02:39:00,
2013-04-20 22:44:00,47.2,30.5,30.44,NW,326,0.0,0.0,52,0.00,,,0.00,Wunderground v.1.13,2013-04-21 02:44:00,
2013-04-20 22:49:00,47.0,30.3,30.44,NW,326,0.0,0.0,52,0.00,,,0.00,Wunderground v.1.13,2013-04-21 02:49:00,
2013-04-20 22:54:00,46.9,30.2,30.44,NW,326,0.0,0.0,52,0.00,,,0.00,Wunderground v.1.13,2013-04-21 02:54:00,
2013-04-20 22:59:00,46.8,30.6,30.44,NW,326,0.0,0.0,53,0.00,,,0.00,Wunderground v.1.13,2013-04-21 02:59:00,
2013-04-20 23:04:00,46.6,30.4,30.44,NW,326,0.0,0.0,53,0.00,,,0.00,Wunderground v.1.13,2013-04-21 03:04:00,
2013-04-20 23:09:00,46.4,30.2,30.44,NW,326,0.0,0.0,53,0.00,,,0.00,Wunderground v.1.13,2013-04-21 03:09:00,
2013-04-20 23:14:00,46.2,30.0,30.44,NW,326,0.0,0.0,53,0.00,,,0.00,Wunderground v.1.13,2013-04-21 03:14:00,
2013-04-20 23:19:00,46.0,29.8,30.44,NW,326,0.0,0.0,53,0.00,,,0.00,Wunderground v.1.13,2013-04-21 03:19:00,
2013-04-20 23:24:00,46.0,29.8,30.45,NW,326,0.0,0.0,53,0.00,,,0.00,Wunderground v.1.13,2013-04-21 03:24:00,
2013-04-20 23:29:00,46.0,29.8,30.45,NW,326,0.0,0.0,53,0.00,,,0.00,Wunderground v.1.13,2013-04-21 03:29:00,
2013-04-20 23:34:00,46.1,30.4,30.45,NW,326,0.0,0.0,54,0.00,,,0.00,Wunderground v.1.13,2013-04-21 03:34:00,
2013-04-20 23:40:00,46.0,30.3,30.45,NW,326,0.0,0.0,54,0.00,,,0.00,Wunderground v.1.13,2013-04-21 03:40:00,
2013-04-20 23:44:00,45.8,30.5,30.44,NW,326,0.0,0.0,55,0.00,,,0.00,Wunderground v.1.13,2013-04-21 03:44:00,
2013-04-20 23:49:00,45.7,30.4,30.44,NW,326,0.0,0.0,55,0.00,,,0.00,Wunderground v.1.13,2013-04-21 03:49:00,
2013-04-20 23:54:00,45.5,30.3,30.45,NW,326,0.0,0.0,55,0.00,,,0.00,Wunderground v.1.13,2013-04-21 03:54:00,